Location: Marlborough
(51.4223°N, 1.7415°W)
Time: 08:15:26
(UTC+01:00)

Envisat - Pass Details

Date: 31 May 2024
Orbit: 762 x 764 km, 98.3° (Epoch: 13 June)

Event Time Altitude Azimuth Distance (km) Brightness Sun altitude
Rises 04:08:21 0° 18° (NNE) 3,240 7.6 -6.3°
Reaches altitude 10° 04:10:45 10° 23° (NNE) 2,309 6.9 -6.1°
Maximum altitude 04:15:41 51° 99° (E) 963 3.8 -5.5°
Drops below altitude 10° 04:20:36 10° 176° (S) 2,292 5.1 -5.0°
Sets 04:22:58 0° 181° (S) 3,214 5.8 -4.7°
